DLH27B EDDF-LOWW

Flight info

Callsign DLH27B
Flight time 0h 53m
Altitude 31000
Route SULUS7S SULUS Z650 VEMUT/N0500F290 DCT BUDEX BUDEX2W
Aircraft A35K/H-SDE2E3GHIJ3J4J5LM1ORWXY/LB1D1

Departure

Time 2026-05-05 17:35
Airport Frankfurt Main Airport (EDDF)

Arrival

Time 2026-05-05 18:28
Airport Vienna International Airport (LOWW)
Time Latitude Longitude Altitude Speed Heading
2026-05-05 16:13 50.04777 8.56495 362 ft 0 kts 340°
2026-05-05 17:18 50.04775 8.56496 362 ft 2 kts 339°
2026-05-05 17:19 50.04751 8.56511 367 ft 4 kts 338°
2026-05-05 17:19 50.04726 8.56526 365 ft 4 kts 340°
2026-05-05 17:19 50.04701 8.56537 363 ft 4 kts 358°
2026-05-05 17:19 50.04680 8.56531 365 ft 3 kts 25°
2026-05-05 17:20 50.04656 8.56514 364 ft 4 kts 22°
2026-05-05 17:20 50.04631 8.56499 367 ft 2 kts 25°
2026-05-05 17:20 50.04644 8.56505 370 ft 4 kts 13°
2026-05-05 17:20 50.04667 8.56495 367 ft 4 kts 326°
2026-05-05 17:21 50.04680 8.56461 368 ft 4 kts 292°
2026-05-05 17:21 50.04673 8.56427 366 ft 3 kts 245°
2026-05-05 17:21 50.04665 8.56425 369 ft 4 kts 182°
2026-05-05 17:22 50.04658 8.56398 366 ft 0 kts 250°
2026-05-05 17:27 50.04657 8.56394 362 ft 2 kts 250°
2026-05-05 17:27 50.04640 8.56321 370 ft 12 kts 250°
2026-05-05 17:27 50.04608 8.56191 366 ft 14 kts 249°
2026-05-05 17:27 50.04572 8.56035 367 ft 17 kts 249°
2026-05-05 17:28 50.04490 8.55943 368 ft 16 kts 200°
2026-05-05 17:28 50.04378 8.55919 367 ft 18 kts 169°
2026-05-05 17:28 50.04300 8.55955 368 ft 10 kts 162°
2026-05-05 17:28 50.04239 8.55903 367 ft 12 kts 235°
2026-05-05 17:29 50.04197 8.55767 366 ft 15 kts 250°
2026-05-05 17:29 50.04157 8.55597 366 ft 18 kts 250°
2026-05-05 17:29 50.04112 8.55409 364 ft 13 kts 250°
2026-05-05 17:29 50.04108 8.55390 363 ft 0 kts 250°
2026-05-05 17:30 50.04105 8.55379 367 ft 2 kts 250°
2026-05-05 17:30 50.04103 8.55372 367 ft 0 kts 250°
2026-05-05 17:30 50.04094 8.55331 367 ft 11 kts 250°
2026-05-05 17:30 50.04062 8.55201 364 ft 14 kts 250°
2026-05-05 17:31 50.04025 8.55043 365 ft 19 kts 250°
2026-05-05 17:31 50.03969 8.54809 366 ft 28 kts 249°
2026-05-05 17:31 50.03909 8.54557 363 ft 23 kts 249°
2026-05-05 17:31 50.03840 8.54326 356 ft 24 kts 238°
2026-05-05 17:32 50.03770 8.54091 355 ft 24 kts 249°
2026-05-05 17:32 50.03709 8.53848 355 ft 24 kts 248°
2026-05-05 17:32 50.03650 8.53608 356 ft 23 kts 251°
2026-05-05 17:32 50.03596 8.53374 354 ft 23 kts 250°
2026-05-05 17:33 50.03544 8.53147 355 ft 22 kts 250°
2026-05-05 17:33 50.03490 8.52930 352 ft 21 kts 249°
2026-05-05 17:33 50.03437 8.52724 353 ft 17 kts 248°
2026-05-05 17:33 50.03384 8.52610 353 ft 12 kts 207°
2026-05-05 17:34 50.03314 8.52596 347 ft 8 kts 180°
2026-05-05 17:34 50.03307 8.52596 348 ft 0 kts 180°
2026-05-05 17:34 50.03196 8.52596 341 ft 47 kts 180°
2026-05-05 17:34 50.02590 8.52601 347 ft 124 kts 180°
2026-05-05 17:35 50.01518 8.52612 468 ft 175 kts 181°
2026-05-05 17:35 50.00363 8.52670 1570 ft 164 kts 180°
2026-05-05 17:35 49.99126 8.52713 2030 ft 193 kts 183°
2026-05-05 17:35 49.97701 8.52787 2562 ft 215 kts 174°
2026-05-05 17:36 49.96317 8.53813 3264 ft 230 kts 139°
2026-05-05 17:36 49.95380 8.55809 3694 ft 234 kts 122°
2026-05-05 17:36 49.94605 8.58037 3835 ft 236 kts 120°
2026-05-05 17:36 49.94062 8.60447 3838 ft 241 kts 101°
2026-05-05 17:37 49.93900 8.63134 3900 ft 261 kts 94°
2026-05-05 17:37 49.93841 8.65080 4297 ft 272 kts 94°
2026-05-05 17:37 49.93405 8.68884 5702 ft 271 kts 116°
2026-05-05 17:37 49.92285 8.71172 6772 ft 267 kts 142°
2026-05-05 17:38 49.90791 8.72914 7861 ft 270 kts 147°
2026-05-05 17:38 49.89253 8.74621 8964 ft 275 kts 144°
2026-05-05 17:38 49.87946 8.76831 9949 ft 284 kts 126°
2026-05-05 17:38 49.86903 8.79539 10645 ft 303 kts 121°
2026-05-05 17:39 49.85845 8.82535 11121 ft 330 kts 120°
2026-05-05 17:39 49.84966 8.85984 11579 ft 358 kts 105°
2026-05-05 17:39 49.84828 8.89899 12403 ft 372 kts 85°
2026-05-05 17:39 49.85252 8.93882 13419 ft 378 kts 80°
2026-05-05 17:40 49.85769 8.97895 14406 ft 382 kts 80°
2026-05-05 17:40 49.86300 9.01957 15288 ft 387 kts 80°
2026-05-05 17:40 49.86838 9.06058 16215 ft 391 kts 80°
2026-05-05 17:40 49.87383 9.10212 17124 ft 395 kts 81°
2026-05-05 17:41 49.87926 9.14359 18026 ft 400 kts 81°
2026-05-05 17:41 49.88482 9.18615 18823 ft 405 kts 81°
2026-05-05 17:41 49.89041 9.22901 19668 ft 408 kts 81°
2026-05-05 17:41 49.89605 9.27249 20527 ft 413 kts 81°
2026-05-05 17:42 49.90174 9.31634 21408 ft 417 kts 81°
2026-05-05 17:42 49.90748 9.36075 22223 ft 421 kts 81°
2026-05-05 17:42 49.91324 9.40548 22989 ft 425 kts 81°
2026-05-05 17:42 49.91904 9.45073 23772 ft 430 kts 81°
2026-05-05 17:43 49.92489 9.49645 24495 ft 433 kts 81°
2026-05-05 17:43 49.93017 9.54217 25196 ft 436 kts 85°
2026-05-05 17:43 49.93189 9.58927 25927 ft 437 kts 91°
2026-05-05 17:43 49.93171 9.63672 26594 ft 441 kts 94°
2026-05-05 17:44 49.93066 9.68450 27305 ft 444 kts 95°
2026-05-05 17:44 49.92917 9.73251 28025 ft 448 kts 95°
2026-05-05 17:44 49.92747 9.78101 28704 ft 452 kts 96°
2026-05-05 17:44 49.92571 9.82997 29386 ft 456 kts 96°
2026-05-05 17:45 49.92395 9.87938 30024 ft 459 kts 96°
2026-05-05 17:45 49.92223 9.92846 30524 ft 464 kts 96°
2026-05-05 17:45 49.92050 9.97916 30770 ft 466 kts 96°
2026-05-05 17:46 49.91709 10.07957 30801 ft 472 kts 96°
2026-05-05 17:46 49.91356 10.18173 30806 ft 474 kts 96°
2026-05-05 17:47 49.90995 10.28401 30808 ft 475 kts 96°
2026-05-05 17:47 49.90684 10.36962 30807 ft 475 kts 96°
2026-05-05 17:48 49.90303 10.47178 30808 ft 474 kts 96°
2026-05-05 17:48 49.89915 10.57332 30804 ft 475 kts 97°
2026-05-05 17:49 49.89516 10.67583 30811 ft 475 kts 97°
2026-05-05 17:49 49.89106 10.77824 30809 ft 475 kts 97°
2026-05-05 17:50 49.88688 10.88054 30811 ft 475 kts 97°
2026-05-05 17:50 49.88260 10.98288 30798 ft 476 kts 97°
2026-05-05 17:51 49.87823 11.08556 30800 ft 478 kts 97°
2026-05-05 17:51 49.87378 11.18786 30797 ft 479 kts 97°
2026-05-05 17:52 49.86922 11.29085 30794 ft 479 kts 97°
2026-05-05 17:52 49.86457 11.39389 30770 ft 479 kts 97°
2026-05-05 17:53 49.85979 11.49745 30755 ft 483 kts 97°
2026-05-05 17:53 49.85488 11.60158 30763 ft 484 kts 97°
2026-05-05 17:54 49.84990 11.70561 30761 ft 484 kts 97°
2026-05-05 17:54 49.84480 11.80987 30766 ft 484 kts 97°
2026-05-05 17:55 49.83964 11.91345 30766 ft 487 kts 97°
2026-05-05 17:55 49.83431 12.01830 30768 ft 490 kts 97°
2026-05-05 17:56 49.82889 12.12350 30763 ft 490 kts 97°
2026-05-05 17:56 49.82337 12.22866 30731 ft 490 kts 97°
2026-05-05 17:57 49.81775 12.33381 30725 ft 490 kts 97°
2026-05-05 17:57 49.80946 12.43813 30735 ft 488 kts 108°
2026-05-05 17:57 49.79713 12.48708 30738 ft 481 kts 121°
2026-05-05 17:58 49.77972 12.53045 30734 ft 479 kts 127°
2026-05-05 17:58 49.74198 12.61557 30733 ft 479 kts 128°
2026-05-05 17:59 49.70413 12.70019 30736 ft 477 kts 127°
2026-05-05 17:59 49.66637 12.78435 30732 ft 478 kts 128°
2026-05-05 18:00 49.62830 12.86892 30727 ft 479 kts 128°
2026-05-05 18:00 49.59046 12.95271 30733 ft 479 kts 128°
2026-05-05 18:01 49.55226 13.03703 30733 ft 479 kts 128°
2026-05-05 18:01 49.51399 13.12126 30726 ft 479 kts 128°
2026-05-05 18:02 49.47571 13.20521 30739 ft 479 kts 128°
2026-05-05 18:02 49.43740 13.28898 30740 ft 479 kts 128°
2026-05-05 18:03 49.39904 13.37260 30735 ft 478 kts 128°
2026-05-05 18:03 49.36066 13.45599 30738 ft 478 kts 128°
2026-05-05 18:04 49.32239 13.53887 30729 ft 481 kts 128°
2026-05-05 18:04 49.28368 13.62249 30741 ft 481 kts 128°
2026-05-05 18:05 49.24485 13.70608 30723 ft 481 kts 128°
2026-05-05 18:05 49.20599 13.78946 30743 ft 481 kts 128°
2026-05-05 18:06 49.16708 13.87271 30736 ft 482 kts 128°
2026-05-05 18:06 49.12800 13.95604 30731 ft 483 kts 128°
2026-05-05 18:07 49.08878 14.03943 30738 ft 483 kts 128°
2026-05-05 18:07 49.04961 14.12246 30729 ft 482 kts 128°
2026-05-05 18:08 49.01029 14.20553 30729 ft 482 kts 128°
2026-05-05 18:08 48.97113 14.28801 30727 ft 484 kts 128°
2026-05-05 18:09 48.93147 14.37074 30729 ft 483 kts 130°
2026-05-05 18:09 48.89045 14.45145 30727 ft 483 kts 130°
2026-05-05 18:10 48.84924 14.53248 30718 ft 483 kts 130°
2026-05-05 18:10 48.80818 14.61327 30717 ft 484 kts 130°
2026-05-05 18:11 48.76722 14.69375 30716 ft 484 kts 130°
2026-05-05 18:11 48.72600 14.77451 30719 ft 484 kts 130°
2026-05-05 18:11 48.70553 14.81461 30478 ft 477 kts 130°
2026-05-05 18:12 48.68514 14.85439 29549 ft 479 kts 130°
2026-05-05 18:12 48.66456 14.89439 28306 ft 485 kts 130°
2026-05-05 18:12 48.64375 14.93481 27262 ft 487 kts 130°
2026-05-05 18:12 48.62297 14.97515 26389 ft 485 kts 130°
2026-05-05 18:13 48.60255 15.01540 25608 ft 482 kts 128°
2026-05-05 18:13 48.58651 15.05974 24873 ft 483 kts 113°
2026-05-05 18:13 48.57651 15.10789 24216 ft 478 kts 109°
2026-05-05 18:13 48.56634 15.15529 23588 ft 471 kts 110°
2026-05-05 18:14 48.55583 15.20187 22910 ft 465 kts 111°
2026-05-05 18:14 48.54543 15.24772 22186 ft 459 kts 111°
2026-05-05 18:14 48.53456 15.29262 21483 ft 452 kts 115°
2026-05-05 18:14 48.52148 15.33533 20776 ft 446 kts 118°
2026-05-05 18:15 48.50791 15.37737 19906 ft 444 kts 118°
2026-05-05 18:15 48.49442 15.41852 18788 ft 430 kts 119°
2026-05-05 18:15 48.48111 15.45874 17244 ft 431 kts 118°
2026-05-05 18:15 48.46756 15.49940 16414 ft 430 kts 119°
2026-05-05 18:16 48.45438 15.53897 16087 ft 415 kts 118°
2026-05-05 18:16 48.44164 15.57714 15799 ft 401 kts 118°
2026-05-05 18:16 48.42929 15.61400 15541 ft 387 kts 120°
2026-05-05 18:16 48.41740 15.64941 15258 ft 370 kts 119°
2026-05-05 18:17 48.40612 15.68303 14917 ft 349 kts 119°
2026-05-05 18:17 48.39549 15.71467 14508 ft 330 kts 120°
2026-05-05 18:17 48.38525 15.74503 13886 ft 322 kts 119°
2026-05-05 18:17 48.37513 15.77497 13110 ft 318 kts 119°
2026-05-05 18:18 48.36517 15.80436 12308 ft 313 kts 119°
2026-05-05 18:18 48.35549 15.83297 11519 ft 310 kts 119°
2026-05-05 18:18 48.34579 15.86162 10753 ft 305 kts 119°
2026-05-05 18:18 48.33618 15.88991 10040 ft 304 kts 118°
2026-05-05 18:19 48.32666 15.91792 9460 ft 297 kts 118°
2026-05-05 18:19 48.31733 15.94537 8662 ft 293 kts 117°
2026-05-05 18:19 48.30807 15.97262 7859 ft 291 kts 117°
2026-05-05 18:19 48.29874 15.99944 7051 ft 290 kts 120°
2026-05-05 18:20 48.28889 16.02589 6670 ft 287 kts 119°
2026-05-05 18:20 48.27949 16.05153 6493 ft 275 kts 118°
2026-05-05 18:20 48.27082 16.07641 6343 ft 263 kts 120°
2026-05-05 18:20 48.26280 16.10043 6197 ft 252 kts 119°
2026-05-05 18:21 48.25524 16.12355 6074 ft 241 kts 118°
2026-05-05 18:21 48.24816 16.14570 5983 ft 229 kts 119°
2026-05-05 18:21 48.24153 16.16662 5863 ft 216 kts 117°
2026-05-05 18:21 48.23524 16.18659 5690 ft 207 kts 118°
2026-05-05 18:22 48.22909 16.20580 5463 ft 202 kts 119°
2026-05-05 18:22 48.22293 16.22473 5188 ft 202 kts 121°
2026-05-05 18:22 48.21686 16.24338 4910 ft 199 kts 122°
2026-05-05 18:22 48.21096 16.26168 4609 ft 191 kts 122°
2026-05-05 18:23 48.20523 16.27936 4331 ft 186 kts 122°
2026-05-05 18:23 48.19970 16.29649 4087 ft 178 kts 123°
2026-05-05 18:23 48.19446 16.31263 3839 ft 167 kts 123°
2026-05-05 18:23 48.18954 16.32783 3621 ft 157 kts 124°
2026-05-05 18:24 48.18491 16.34213 3423 ft 148 kts 125°
2026-05-05 18:24 48.18054 16.35557 3230 ft 140 kts 126°
2026-05-05 18:24 48.17631 16.36860 3059 ft 138 kts 127°
2026-05-05 18:24 48.17211 16.38149 2868 ft 138 kts 125°
2026-05-05 18:25 48.16794 16.39438 2693 ft 137 kts 125°
2026-05-05 18:25 48.16660 16.39851 2627 ft 136 kts 125°
2026-05-05 18:25 48.15976 16.41960 2334 ft 132 kts 125°
2026-05-05 18:25 48.15575 16.43174 2149 ft 128 kts 125°
2026-05-05 18:26 48.15203 16.44353 1944 ft 126 kts 129°
2026-05-05 18:26 48.14858 16.45541 1724 ft 122 kts 129°
2026-05-05 18:26 48.14469 16.46657 1571 ft 121 kts 132°
2026-05-05 18:26 48.14068 16.47776 1424 ft 122 kts 125°
2026-05-05 18:27 48.13730 16.48948 1257 ft 124 kts 122°
2026-05-05 18:27 48.13361 16.50120 1115 ft 124 kts 126°
2026-05-05 18:27 48.12976 16.51268 951 ft 122 kts 129°
2026-05-05 18:27 48.12598 16.52395 775 ft 120 kts 126°
2026-05-05 18:28 48.11878 16.54566 625 ft 87 kts 115°
2026-05-05 18:28 48.11689 16.55154 620 ft 55 kts 115°
2026-05-05 18:28 48.11541 16.55613 636 ft 45 kts 116°
2026-05-05 18:29 48.11412 16.56008 634 ft 40 kts 116°
2026-05-05 18:29 48.11283 16.56406 635 ft 44 kts 116°
2026-05-05 18:29 48.11154 16.56805 639 ft 42 kts 116°
2026-05-05 18:29 48.11087 16.57082 637 ft 13 kts 84°
2026-05-05 18:30 48.11145 16.57200 639 ft 17 kts 35°
2026-05-05 18:30 48.11258 16.57288 636 ft 14 kts 27°
2026-05-05 18:30 48.11306 16.57326 632 ft 9 kts 27°
2026-05-05 18:30 48.11384 16.57387 629 ft 16 kts 27°
2026-05-05 18:31 48.11487 16.57462 628 ft 5 kts 25°
2026-05-05 18:31 48.11488 16.57463 628 ft 0 kts 26°
2026-05-05 18:33 48.11511 16.57473 622 ft 9 kts
2026-05-05 18:33 48.11606 16.57433 625 ft 19 kts 342°
2026-05-05 18:33 48.11746 16.57371 622 ft 19 kts 343°
2026-05-05 18:33 48.11772 16.57359 622 ft 7 kts 342°
2026-05-05 18:34 48.11834 16.57269 624 ft 19 kts 301°
2026-05-05 18:34 48.11887 16.57120 623 ft 9 kts 295°
2026-05-05 18:34 48.11910 16.57042 617 ft 9 kts 289°
2026-05-05 18:34 48.11903 16.56988 620 ft 2 kts 228°
2026-05-05 18:35 48.11888 16.56969 623 ft 3 kts 227°
2026-05-05 18:35 48.11875 16.56953 621 ft 1 kts 213°
2026-05-05 18:35 48.11868 16.56947 620 ft 2 kts 207°
2026-05-05 18:35 48.11862 16.56944 619 ft 1 kts 202°
2026-05-05 18:36 48.11855 16.56939 621 ft 0 kts 205°
2026-05-05 18:36 48.11850 16.56936 621 ft 2 kts 205°
2026-05-05 18:36 48.11847 16.56934 620 ft 0 kts 205°